User: anonymous   Login
Location: Unspecified
(0.0000°N, 0.0000°E)
Time: 16:33:36
(UTC+02:00)
Language:

Ariane H10 - Orbit

View from above orbital plane
View from above orbital plane
View from above satellite
View from above satellite

Ground track
Ground track

The orbit data is extracted from the following two-line orbital elements,

1 21727U 91067B   16149.42912519 -.00000055 +00000-0 -22543-3 0  9997
2 21727 004.1195 125.9357 7174607 201.4881 097.7974 02.31847784169035
Epoch (UTC): 28 May 2016 10:17:56
Eccentricity: 0.7174607
inclination: 4.1195°
perigee height: 435 km
apogee height: 35036 km
right ascension of ascending node: 125.9357°
argument of perigee: 201.4881°
revolutions per day: 2.31847784
mean anomaly at epoch: 97.7974°
orbit number at epoch: 16903

The dashed part of the orbit path shows where the satellite is in the earth's shadow,  

DLR